Regional Weather Roundup
Issued by NWS Goodland, KS

Home | Current Version | Previous Version | Graphics & Text | Print | Product List | Glossary Off
Versions: 1 2 3 4 5 6 7 8 9 10 11 12 13 14 15 16 17 18 19 20 21 22 23 24 25 26 27 28 29 30 31 32 33 34 35 36 37 38 39 40 41 42 43 44 45 46 47 48 49 50

000
ASUS43 KGLD 171408
RWRGLD

GOODLAND FORECAST AREA HOURLY WEATHER ROUNDUP
NATIONAL WEATHER SERVICE GOODLAND KS
700 AM MST TUE JAN 17 2017

...OFFICIAL OBSERVATIONS...

CITY           SKY/WX    TMP DP  RH WIND       PRES   REMARKS
GOODLAND KS    CLOUDY    23  18  81 W8        30.09R
HILL CITY KS   CLEAR     29  24  82 NW8       30.10S
IMPERIAL NEB   CLOUDY    20  14  77 W5        30.08S
MCCOOK NEB     CLOUDY    24  20  84 W13       30.09S WCI  12
AKRON CO       CLOUDY    18  11  74 SW8       30.05S
BURLINGTON CO  CLOUDY    24  17  74 W8        30.09S
LIMON CO       CLOUDY    12  11  95 CALM      30.07R
$$

...UNOFFICIAL OBSERVATIONS...

CITY           SKY/WX    TMP DP  RH WIND       PRES   REMARKS
LENORA KS        N/A     27  32 100 NW8         N/A
NORTON KS      CLEAR     28  21  74 W13       30.08S WCI  18
SHARON SPRINGS   N/A     31  28  88 CALM        N/A
TRENTON NEB      N/A     22  32 100 W6          N/A
KIT CARSON CO    N/A     27  24  86 CALM        N/A
YUMA CO        FAIR      10   5  79 SW7       30.07S
$$




USA.gov is the U.S. government's official web portal to all federal, state and local government web resources and services.